RYR57MU EKCH-EGSS

Flight info

Callsign RYR57MU
Flight time 1h 24m
Altitude 38000
Route LANGO DCT KESUR DCT LONAM DCT BINBO DCT AKOKO N866 KUBAX Z150 MEGEL
Aircraft B38M/M-SDE1FGHILORVWXY/HB1

Departure

Time 2026-04-23 04:01
Airport Copenhagen Kastrup Airport (EKCH)

Arrival

Time 2026-04-23 05:25
Airport London Stansted Airport (EGSS)
Time Latitude Longitude Altitude Speed Heading
2026-04-23 03:36 55.62515 12.65762 19 ft 0 kts 359°
2026-04-23 03:48 55.62493 12.65764 19 ft 4 kts 351°
2026-04-23 03:49 55.62468 12.65776 19 ft 4 kts 335°
2026-04-23 03:49 55.62448 12.65803 19 ft 4 kts 297°
2026-04-23 03:49 55.62444 12.65828 19 ft 1 kts 269°
2026-04-23 03:49 55.62444 12.65832 19 ft 0 kts 269°
2026-04-23 03:55 55.62444 12.65822 19 ft 2 kts 269°
2026-04-23 03:55 55.62444 12.65780 20 ft 5 kts 269°
2026-04-23 03:55 55.62443 12.65695 21 ft 9 kts 269°
2026-04-23 03:56 55.62441 12.65542 19 ft 15 kts 269°
2026-04-23 03:56 55.62439 12.65372 19 ft 8 kts 265°
2026-04-23 03:56 55.62392 12.65330 19 ft 9 kts 179°
2026-04-23 03:56 55.62320 12.65332 19 ft 9 kts 189°
2026-04-23 03:57 55.62288 12.65247 20 ft 10 kts 255°
2026-04-23 03:57 55.62235 12.65196 19 ft 10 kts 190°
2026-04-23 03:57 55.62167 12.65133 19 ft 12 kts 213°
2026-04-23 03:57 55.62090 12.65043 20 ft 14 kts 213°
2026-04-23 03:58 55.62001 12.64940 20 ft 16 kts 212°
2026-04-23 03:58 55.61905 12.64831 19 ft 16 kts 213°
2026-04-23 03:58 55.61803 12.64712 19 ft 19 kts 213°
2026-04-23 03:58 55.61693 12.64587 21 ft 13 kts 212°
2026-04-23 03:59 55.61650 12.64444 19 ft 15 kts 267°
2026-04-23 03:59 55.61646 12.64332 19 ft 6 kts 266°
2026-04-23 03:59 55.61644 12.64274 19 ft 6 kts 266°
2026-04-23 03:59 55.61640 12.64186 19 ft 8 kts 266°
2026-04-23 04:00 55.61624 12.64074 19 ft 11 kts 231°
2026-04-23 04:00 55.61563 12.63977 21 ft 14 kts 220°
2026-04-23 04:00 55.61406 12.63732 19 ft 62 kts 221°
2026-04-23 04:00 55.60887 12.62931 21 ft 133 kts 221°
2026-04-23 04:01 55.60041 12.61651 128 ft 177 kts 224°
2026-04-23 04:01 55.59121 12.60318 967 ft 175 kts 223°
2026-04-23 04:01 55.58176 12.58885 1635 ft 181 kts 226°
2026-04-23 04:01 55.57204 12.57352 2233 ft 196 kts 224°
2026-04-23 04:02 55.56276 12.55454 2804 ft 210 kts 242°
2026-04-23 04:02 55.55486 12.53192 3495 ft 223 kts 243°
2026-04-23 04:02 55.54663 12.50844 4344 ft 224 kts 243°
2026-04-23 04:02 55.53833 12.48461 5071 ft 235 kts 244°
2026-04-23 04:03 55.52942 12.45903 5493 ft 255 kts 244°
2026-04-23 04:03 55.51991 12.43177 5920 ft 274 kts 244°
2026-04-23 04:03 55.50970 12.40259 6583 ft 281 kts 244°
2026-04-23 04:03 55.49946 12.37330 7390 ft 283 kts 244°
2026-04-23 04:04 55.48905 12.34356 8122 ft 287 kts 244°
2026-04-23 04:04 55.47849 12.31339 8879 ft 290 kts 244°
2026-04-23 04:04 55.46785 12.28308 9643 ft 293 kts 243°
2026-04-23 04:04 55.45708 12.25235 10384 ft 296 kts 243°
2026-04-23 04:05 55.44601 12.22081 10771 ft 313 kts 243°
2026-04-23 04:05 55.43425 12.18743 11177 ft 327 kts 243°
2026-04-23 04:05 55.42229 12.15352 11818 ft 331 kts 243°
2026-04-23 04:05 55.41007 12.11889 12578 ft 336 kts 243°
2026-04-23 04:06 55.39768 12.08383 13334 ft 340 kts 243°
2026-04-23 04:06 55.38511 12.04831 14112 ft 344 kts 243°
2026-04-23 04:06 55.37241 12.01245 14811 ft 349 kts 242°
2026-04-23 04:06 55.35952 11.97614 15526 ft 352 kts 242°
2026-04-23 04:07 55.34646 11.93938 16214 ft 357 kts 242°
2026-04-23 04:07 55.33316 11.90202 16895 ft 362 kts 242°
2026-04-23 04:07 55.31978 11.86447 17570 ft 366 kts 241°
2026-04-23 04:07 55.30615 11.82630 18213 ft 371 kts 241°
2026-04-23 04:08 55.29258 11.78836 18811 ft 375 kts 241°
2026-04-23 04:08 55.27863 11.74936 19372 ft 379 kts 240°
2026-04-23 04:08 55.26453 11.71004 19905 ft 383 kts 240°
2026-04-23 04:08 55.25018 11.67041 20458 ft 387 kts 239°
2026-04-23 04:09 55.23548 11.63064 20975 ft 391 kts 239°
2026-04-23 04:09 55.22067 11.59056 21525 ft 394 kts 238°
2026-04-23 04:09 55.20573 11.55012 22073 ft 398 kts 238°
2026-04-23 04:09 55.19061 11.50924 22599 ft 401 kts 238°
2026-04-23 04:10 55.17555 11.46860 23129 ft 405 kts 238°
2026-04-23 04:10 55.16017 11.42717 23657 ft 409 kts 237°
2026-04-23 04:10 55.14457 11.38520 24120 ft 413 kts 237°
2026-04-23 04:10 55.12885 11.34299 24567 ft 416 kts 237°
2026-04-23 04:11 55.11303 11.30058 25019 ft 419 kts 237°
2026-04-23 04:11 55.09705 11.25783 25465 ft 422 kts 237°
2026-04-23 04:11 55.08095 11.21480 25914 ft 424 kts 237°
2026-04-23 04:11 55.06472 11.17155 26350 ft 427 kts 237°
2026-04-23 04:12 55.04860 11.12863 26774 ft 430 kts 237°
2026-04-23 04:12 55.03214 11.08488 27191 ft 433 kts 237°
2026-04-23 04:12 55.01553 11.04083 27615 ft 436 kts 237°
2026-04-23 04:12 54.99882 10.99660 28037 ft 438 kts 237°
2026-04-23 04:13 54.98198 10.95209 28429 ft 441 kts 236°
2026-04-23 04:13 54.96506 10.90743 28879 ft 442 kts 236°
2026-04-23 04:13 54.94963 10.86117 29259 ft 445 kts 248°
2026-04-23 04:13 54.94149 10.80937 29653 ft 445 kts 261°
2026-04-23 04:14 54.93563 10.75627 29945 ft 450 kts 260°
2026-04-23 04:14 54.92978 10.70341 30314 ft 452 kts 260°
2026-04-23 04:14 54.92396 10.64960 30617 ft 455 kts 261°
2026-04-23 04:14 54.91816 10.59544 30919 ft 457 kts 261°
2026-04-23 04:15 54.91233 10.54089 31217 ft 460 kts 260°
2026-04-23 04:15 54.90646 10.48611 31527 ft 462 kts 260°
2026-04-23 04:15 54.89455 10.37577 32120 ft 467 kts 260°
2026-04-23 04:16 54.88851 10.32022 32412 ft 469 kts 260°
2026-04-23 04:16 54.88242 10.26439 32700 ft 472 kts 260°
2026-04-23 04:16 54.87635 10.20903 32980 ft 474 kts 260°
2026-04-23 04:16 54.87013 10.15261 33267 ft 477 kts 260°
2026-04-23 04:17 54.86388 10.09605 33537 ft 479 kts 260°
2026-04-23 04:17 54.85756 10.03921 33815 ft 481 kts 260°
2026-04-23 04:17 54.85117 9.98202 34105 ft 484 kts 260°
2026-04-23 04:17 54.84474 9.92459 34365 ft 485 kts 259°
2026-04-23 04:18 54.83729 9.86753 34662 ft 486 kts 256°
2026-04-23 04:18 54.82904 9.81062 34982 ft 486 kts 256°
2026-04-23 04:18 54.82095 9.75394 35290 ft 485 kts 256°
2026-04-23 04:18 54.81301 9.69798 35648 ft 483 kts 256°
2026-04-23 04:19 54.80499 9.64151 35973 ft 482 kts 256°
2026-04-23 04:19 54.79693 9.58500 36276 ft 482 kts 256°
2026-04-23 04:19 54.78888 9.52873 36567 ft 482 kts 256°
2026-04-23 04:19 54.78079 9.47236 36861 ft 481 kts 256°
2026-04-23 04:20 54.77270 9.41628 37148 ft 480 kts 256°
2026-04-23 04:20 54.76458 9.36010 37408 ft 480 kts 256°
2026-04-23 04:20 54.75646 9.30413 37692 ft 480 kts 256°
2026-04-23 04:20 54.74840 9.24887 37947 ft 479 kts 255°
2026-04-23 04:21 54.74023 9.19298 38198 ft 478 kts 255°
2026-04-23 04:21 54.73206 9.13729 38348 ft 478 kts 255°
2026-04-23 04:21 54.72386 9.08158 38302 ft 476 kts 255°
2026-04-23 04:22 54.70751 8.97106 38325 ft 475 kts 255°
2026-04-23 04:22 54.69103 8.86053 38324 ft 475 kts 255°
2026-04-23 04:23 54.67457 8.75086 38324 ft 474 kts 254°
2026-04-23 04:23 54.65794 8.64074 38320 ft 474 kts 253°
2026-04-23 04:24 54.64122 8.53083 38334 ft 472 kts 253°
2026-04-23 04:24 54.62447 8.42146 38350 ft 471 kts 253°
2026-04-23 04:25 54.60773 8.31284 38348 ft 472 kts 253°
2026-04-23 04:25 54.59078 8.20367 38350 ft 471 kts 253°
2026-04-23 04:26 54.57373 8.09455 38362 ft 472 kts 253°
2026-04-23 04:26 54.55660 7.98558 38359 ft 470 kts 252°
2026-04-23 04:27 54.53940 7.87690 38371 ft 470 kts 252°
2026-04-23 04:27 54.52225 7.76924 38372 ft 470 kts 252°
2026-04-23 04:28 54.49614 7.60668 38381 ft 470 kts 252°
2026-04-23 04:28 54.47859 7.49827 38389 ft 471 kts 251°
2026-04-23 04:29 54.46099 7.39022 38383 ft 467 kts 251°
2026-04-23 04:29 54.44352 7.28364 38393 ft 467 kts 251°
2026-04-23 04:30 54.42578 7.17613 38401 ft 467 kts 251°
2026-04-23 04:30 54.40798 7.06888 38399 ft 467 kts 251°
2026-04-23 04:31 54.39005 6.96157 38405 ft 467 kts 251°
2026-04-23 04:31 54.37209 6.85470 38402 ft 465 kts 251°
2026-04-23 04:32 54.35419 6.74883 38415 ft 465 kts 251°
2026-04-23 04:32 54.33608 6.64237 38415 ft 465 kts 251°
2026-04-23 04:33 54.31788 6.53603 38440 ft 465 kts 250°
2026-04-23 04:33 54.29958 6.42973 38423 ft 466 kts 250°
2026-04-23 04:34 54.28127 6.32407 38433 ft 467 kts 250°
2026-04-23 04:34 54.26272 6.21759 38429 ft 467 kts 250°
2026-04-23 04:35 54.24406 6.11107 38435 ft 467 kts 250°
2026-04-23 04:35 54.22531 6.00476 38435 ft 467 kts 250°
2026-04-23 04:36 54.20658 5.89912 38446 ft 467 kts 250°
2026-04-23 04:36 54.18764 5.79296 38448 ft 468 kts 250°
2026-04-23 04:37 54.16853 5.68646 38453 ft 470 kts 250°
2026-04-23 04:37 54.14932 5.58003 38450 ft 470 kts 249°
2026-04-23 04:38 54.13012 5.47428 38457 ft 470 kts 249°
2026-04-23 04:38 54.11071 5.36795 38454 ft 471 kts 249°
2026-04-23 04:39 54.09110 5.26122 38451 ft 472 kts 249°
2026-04-23 04:39 54.07141 5.15456 38466 ft 472 kts 249°
2026-04-23 04:40 54.05174 5.04866 38462 ft 472 kts 249°
2026-04-23 04:40 54.03185 4.94220 38462 ft 472 kts 249°
2026-04-23 04:41 54.01188 4.83591 38472 ft 472 kts 249°
2026-04-23 04:41 53.99181 4.72965 38468 ft 472 kts 249°
2026-04-23 04:42 53.97164 4.62353 38470 ft 472 kts 248°
2026-04-23 04:42 53.95153 4.51818 38476 ft 472 kts 248°
2026-04-23 04:43 53.93122 4.41228 38476 ft 472 kts 248°
2026-04-23 04:43 53.91082 4.30641 38489 ft 472 kts 248°
2026-04-23 04:44 53.89030 4.20050 38481 ft 473 kts 248°
2026-04-23 04:44 53.86985 4.09553 38482 ft 470 kts 248°
2026-04-23 04:45 53.84885 3.99065 38475 ft 468 kts 243°
2026-04-23 04:45 53.83296 3.94357 38469 ft 456 kts 226°
2026-04-23 04:45 53.81094 3.90585 38496 ft 449 kts 216°
2026-04-23 04:46 53.76311 3.83708 38482 ft 451 kts 215°
2026-04-23 04:46 53.71511 3.77007 38481 ft 451 kts 214°
2026-04-23 04:47 53.66661 3.70315 38492 ft 451 kts 215°
2026-04-23 04:47 53.61804 3.63639 38481 ft 451 kts 214°
2026-04-23 04:48 53.56952 3.56990 38479 ft 448 kts 215°
2026-04-23 04:48 53.52112 3.50379 38482 ft 448 kts 215°
2026-04-23 04:49 53.47300 3.43825 38477 ft 448 kts 215°
2026-04-23 04:49 53.42453 3.37242 38480 ft 448 kts 215°
2026-04-23 04:50 53.37257 3.31727 38500 ft 440 kts 203°
2026-04-23 04:50 53.31799 3.27014 38462 ft 441 kts 203°
2026-04-23 04:51 53.26352 3.22375 38453 ft 442 kts 203°
2026-04-23 04:51 53.20871 3.17727 38469 ft 442 kts 203°
2026-04-23 04:52 53.15379 3.13081 38456 ft 443 kts 203°
2026-04-23 04:52 53.09867 3.08437 38428 ft 444 kts 203°
2026-04-23 04:53 53.07155 3.06156 38061 ft 441 kts 203°
2026-04-23 04:53 53.04416 3.03857 37252 ft 444 kts 203°
2026-04-23 04:53 53.01647 3.01535 36453 ft 446 kts 202°
2026-04-23 04:53 52.98883 2.99220 35966 ft 442 kts 202°
2026-04-23 04:54 52.96159 2.96939 35632 ft 435 kts 202°
2026-04-23 04:54 52.93598 2.94300 35125 ft 439 kts 216°
2026-04-23 04:54 52.91352 2.90854 34564 ft 439 kts 217°
2026-04-23 04:54 52.89087 2.87494 33972 ft 437 kts 217°
2026-04-23 04:55 52.86834 2.84129 33419 ft 434 kts 217°
2026-04-23 04:55 52.84639 2.80839 32939 ft 430 kts 217°
2026-04-23 04:55 52.82432 2.77528 32449 ft 426 kts 217°
2026-04-23 04:55 52.80244 2.74250 31951 ft 424 kts 217°
2026-04-23 04:56 52.78064 2.70987 31461 ft 421 kts 217°
2026-04-23 04:56 52.75904 2.67758 30979 ft 418 kts 217°
2026-04-23 04:56 52.73748 2.64540 30490 ft 416 kts 216°
2026-04-23 04:56 52.71607 2.61345 29933 ft 414 kts 217°
2026-04-23 04:57 52.69477 2.58174 29438 ft 411 kts 218°
2026-04-23 04:57 52.67392 2.55075 28991 ft 407 kts 218°
2026-04-23 04:57 52.65297 2.51964 28539 ft 404 kts 218°
2026-04-23 04:57 52.63221 2.48887 28083 ft 401 kts 219°
2026-04-23 04:58 52.61157 2.45830 27644 ft 398 kts 220°
2026-04-23 04:58 52.59103 2.42795 27209 ft 396 kts 220°
2026-04-23 04:58 52.57059 2.39775 26784 ft 393 kts 220°
2026-04-23 04:58 52.55032 2.36786 26363 ft 391 kts 220°
2026-04-23 04:59 52.53007 2.33801 25949 ft 390 kts 221°
2026-04-23 04:59 52.50992 2.30837 25511 ft 389 kts 221°
2026-04-23 04:59 52.48975 2.27873 25076 ft 388 kts 221°
2026-04-23 04:59 52.46998 2.24974 24692 ft 387 kts 221°
2026-04-23 05:00 52.44992 2.22035 24285 ft 386 kts 222°
2026-04-23 05:00 52.42990 2.19105 23852 ft 385 kts 222°
2026-04-23 05:00 52.40993 2.16187 23391 ft 384 kts 222°
2026-04-23 05:00 52.39007 2.13288 22986 ft 381 kts 222°
2026-04-23 05:01 52.37034 2.10411 22597 ft 378 kts 222°
2026-04-23 05:01 52.35190 2.07389 22191 ft 374 kts 235°
2026-04-23 05:01 52.33996 2.03661 21748 ft 370 kts 250°
2026-04-23 05:01 52.32997 1.99856 21368 ft 368 kts 248°
2026-04-23 05:02 52.31975 1.96036 20935 ft 367 kts 248°
2026-04-23 05:02 52.30961 1.92217 20514 ft 366 kts 248°
2026-04-23 05:02 52.29948 1.88394 20092 ft 365 kts 248°
2026-04-23 05:02 52.28943 1.84599 19662 ft 365 kts 248°
2026-04-23 05:03 52.27933 1.80790 19184 ft 366 kts 248°
2026-04-23 05:03 52.26924 1.76988 18802 ft 365 kts 248°
2026-04-23 05:03 52.25916 1.73197 18335 ft 364 kts 248°
2026-04-23 05:03 52.24908 1.69414 17887 ft 362 kts 248°
2026-04-23 05:04 52.23902 1.65644 17462 ft 361 kts 248°
2026-04-23 05:04 52.22915 1.61953 17056 ft 359 kts 248°
2026-04-23 05:04 52.21918 1.58228 16638 ft 358 kts 248°
2026-04-23 05:04 52.20924 1.54521 16224 ft 356 kts 248°
2026-04-23 05:05 52.19933 1.50832 15812 ft 355 kts 247°
2026-04-23 05:05 52.18945 1.47157 15398 ft 354 kts 247°
2026-04-23 05:05 52.17958 1.43495 14970 ft 353 kts 246°
2026-04-23 05:05 52.16985 1.39887 14585 ft 351 kts 246°
2026-04-23 05:06 52.15988 1.36203 14159 ft 350 kts 246°
2026-04-23 05:06 52.15021 1.32629 13714 ft 349 kts 246°
2026-04-23 05:06 52.14044 1.29026 13295 ft 347 kts 246°
2026-04-23 05:06 52.13073 1.25450 12889 ft 345 kts 246°
2026-04-23 05:07 52.12109 1.21899 12514 ft 342 kts 246°
2026-04-23 05:07 52.11401 1.18249 12235 ft 336 kts 257°
2026-04-23 05:07 52.10853 1.14596 12008 ft 328 kts 255°
2026-04-23 05:07 52.10287 1.11034 11787 ft 322 kts 255°
2026-04-23 05:08 52.09722 1.07560 11566 ft 315 kts 255°
2026-04-23 05:08 52.09164 1.04205 11382 ft 308 kts 254°
2026-04-23 05:08 52.08610 1.00901 11327 ft 296 kts 254°
2026-04-23 05:08 52.08077 0.97742 11280 ft 284 kts 254°
2026-04-23 05:09 52.07561 0.94694 11174 ft 278 kts 253°
2026-04-23 05:09 52.07037 0.91610 10972 ft 287 kts 253°
2026-04-23 05:09 52.06500 0.88446 10673 ft 292 kts 253°
2026-04-23 05:09 52.05956 0.85259 10369 ft 293 kts 253°
2026-04-23 05:10 52.05412 0.82072 10030 ft 293 kts 253°
2026-04-23 05:10 52.04875 0.78933 9713 ft 291 kts 253°
2026-04-23 05:10 52.04336 0.75784 9387 ft 288 kts 253°
2026-04-23 05:10 52.03799 0.72658 9097 ft 286 kts 253°
2026-04-23 05:11 52.03268 0.69570 8849 ft 282 kts 253°
2026-04-23 05:11 52.02748 0.66549 8705 ft 273 kts 253°
2026-04-23 05:11 52.02246 0.63638 8594 ft 263 kts 253°
2026-04-23 05:11 52.01758 0.60815 8519 ft 258 kts 253°
2026-04-23 05:12 52.01461 0.57942 8251 ft 260 kts 264°
2026-04-23 05:12 52.01323 0.54974 7800 ft 267 kts 264°
2026-04-23 05:12 52.01173 0.51939 7332 ft 273 kts 264°
2026-04-23 05:12 52.01014 0.48842 6904 ft 278 kts 264°
2026-04-23 05:13 52.00862 0.45738 6481 ft 281 kts 264°
2026-04-23 05:13 52.00736 0.42606 6253 ft 277 kts 264°
2026-04-23 05:13 52.00608 0.39491 5976 ft 273 kts 264°
2026-04-23 05:14 52.00369 0.33694 6011 ft 249 kts 264°
2026-04-23 05:14 52.00250 0.30891 5675 ft 251 kts 264°
2026-04-23 05:14 51.99950 0.28147 5392 ft 245 kts 242°
2026-04-23 05:14 51.98971 0.25961 5072 ft 239 kts 222°
2026-04-23 05:15 51.97826 0.24068 4770 ft 238 kts 221°
2026-04-23 05:15 51.96649 0.22177 4456 ft 238 kts 220°
2026-04-23 05:15 51.95450 0.20336 4169 ft 237 kts 219°
2026-04-23 05:15 51.94251 0.18512 3899 ft 236 kts 219°
2026-04-23 05:16 51.93077 0.16729 3794 ft 225 kts 220°
2026-04-23 05:16 51.91945 0.15019 3578 ft 223 kts 219°
2026-04-23 05:16 51.90819 0.13319 3382 ft 218 kts 219°
2026-04-23 05:16 51.89734 0.11681 3296 ft 208 kts 219°
2026-04-23 05:17 51.88715 0.10147 3174 ft 199 kts 219°
2026-04-23 05:17 51.87700 0.08618 2888 ft 200 kts 219°
2026-04-23 05:17 51.86688 0.07105 2688 ft 195 kts 218°
2026-04-23 05:17 51.85703 0.05606 2505 ft 193 kts 219°
2026-04-23 05:18 51.84717 0.04093 2525 ft 195 kts 219°
2026-04-23 05:18 51.83747 0.02606 2502 ft 190 kts 219°
2026-04-23 05:18 51.82796 0.01147 2511 ft 185 kts 220°
2026-04-23 05:18 51.81872 -0.00270 2523 ft 181 kts 220°
2026-04-23 05:19 51.80959 -0.01636 2461 ft 176 kts 213°
2026-04-23 05:19 51.79913 -0.02509 2464 ft 166 kts 184°
2026-04-23 05:19 51.78832 -0.02346 2480 ft 157 kts 155°
2026-04-23 05:19 51.77873 -0.01533 2620 ft 159 kts 149°
2026-04-23 05:20 51.76910 -0.00671 2543 ft 156 kts 137°
2026-04-23 05:20 51.76178 0.00539 2466 ft 146 kts 130°
2026-04-23 05:20 51.75726 0.01951 2399 ft 141 kts 97°
2026-04-23 05:20 51.75852 0.03536 2413 ft 146 kts 72°
2026-04-23 05:21 51.76355 0.04989 2523 ft 152 kts 58°
2026-04-23 05:21 51.77052 0.06275 2604 ft 155 kts 50°
2026-04-23 05:21 51.77824 0.07478 2546 ft 154 kts 49°
2026-04-23 05:21 51.78610 0.08655 2529 ft 151 kts 48°
2026-04-23 05:22 51.79363 0.09789 2506 ft 146 kts 49°
2026-04-23 05:22 51.80102 0.10903 2387 ft 145 kts 49°
2026-04-23 05:22 51.80831 0.12006 2233 ft 144 kts 50°
2026-04-23 05:22 51.81564 0.13102 2043 ft 143 kts 48°
2026-04-23 05:23 51.82288 0.14195 1857 ft 142 kts 47°
2026-04-23 05:23 51.83015 0.15274 1674 ft 141 kts 47°
2026-04-23 05:23 51.83733 0.16344 1475 ft 140 kts 46°
2026-04-23 05:23 51.84432 0.17397 1277 ft 139 kts 46°
2026-04-23 05:24 51.85135 0.18447 1080 ft 137 kts 45°
2026-04-23 05:24 51.85834 0.19499 881 ft 137 kts 44°
2026-04-23 05:24 51.86535 0.20542 702 ft 137 kts 44°
2026-04-23 05:24 51.87238 0.21587 505 ft 137 kts 44°
2026-04-23 05:25 51.87928 0.22613 359 ft 131 kts 44°
2026-04-23 05:25 51.88508 0.23492 351 ft 87 kts 43°
2026-04-23 05:25 51.88794 0.23940 349 ft 42 kts 53°
2026-04-23 05:25 51.88862 0.24146 354 ft 6 kts 70°
2026-04-23 05:26 51.88876 0.24214 353 ft 7 kts 72°
2026-04-23 05:26 51.88893 0.24297 350 ft 9 kts 72°
2026-04-23 05:26 51.88913 0.24400 351 ft 11 kts 72°
2026-04-23 05:26 51.88916 0.24494 351 ft 8 kts 118°
2026-04-23 05:27 51.88907 0.24571 355 ft 8 kts 58°
2026-04-23 05:27 51.88951 0.24643 351 ft 10 kts 43°
2026-04-23 05:27 51.89010 0.24733 353 ft 13 kts 43°
2026-04-23 05:27 51.89077 0.24833 358 ft 13 kts 43°
2026-04-23 05:28 51.89151 0.24943 361 ft 16 kts 43°
2026-04-23 05:28 51.89198 0.25014 353 ft 8 kts 43°
2026-04-23 05:28 51.89233 0.25096 360 ft 10 kts 57°
2026-04-23 05:28 51.89280 0.25202 354 ft 13 kts 46°
2026-04-23 05:29 51.89351 0.25313 355 ft 15 kts 43°
2026-04-23 05:29 51.89410 0.25401 357 ft 7 kts 43°
2026-04-23 05:29 51.89419 0.25481 359 ft 9 kts 127°
2026-04-23 05:29 51.89385 0.25555 355 ft 9 kts 117°
2026-04-23 05:30 51.89347 0.25650 358 ft 11 kts 133°
2026-04-23 05:30 51.89298 0.25735 351 ft 11 kts 132°
2026-04-23 05:30 51.89246 0.25825 355 ft 6 kts 134°
2026-04-23 05:30 51.89232 0.25856 351 ft 1 kts 101°
2026-04-23 05:31 51.89237 0.25876 351 ft 3 kts 53°
2026-04-23 05:31 51.89255 0.25904 355 ft 3 kts 43°
2026-04-23 05:31 51.89262 0.25915 351 ft 0 kts 43°
2026-04-23 05:33 51.86305 0.20200 776 ft 136 kts 44°
2026-04-23 05:34 51.86688 0.20768 662 ft 137 kts 43°
2026-04-23 05:34 51.87136 0.21436 537 ft 137 kts 44°
2026-04-23 05:34 51.87568 0.22081 407 ft 135 kts 44°
2026-04-23 05:34 51.88039 0.22786 354 ft 127 kts 45°
2026-04-23 05:35 51.88333 0.23234 349 ft 110 kts 42°
2026-04-23 05:35 51.88510 0.23495 351 ft 47 kts 43°
2026-04-23 05:35 45.85432 1.17246 1313 ft 0 kts 148°
2026-04-23 05:36 45.85379 1.17375 1312 ft 5 kts 37°
2026-04-23 05:36 45.85457 1.17450 1311 ft 36 kts 33°
2026-04-23 05:36 45.85968 1.17930 1313 ft 115 kts 33°
2026-04-23 05:36 45.86810 1.18728 1362 ft 166 kts 35°
2026-04-23 05:37 45.87482 1.19366 1937 ft 143 kts 36°